Location: Denia
(38.8500°N, 0.1170°E)
Time: 18:27:47
(UTC+01:00)

N. Korean satellite - Visible Passes

Search period start: 20 January 2020 00:00
Search period end: 30 January 2020 00:00
Orbit: 454 x 508 km, 97.2° (Epoch: 20 January)

Date Brightness Start Highest point End Pass type
(mag) Time Alt. Az. Time Alt. Az. Time Alt. Az.
20 Jan 9.9 05:48:46 10° ENE 05:50:29 13° E 05:52:13 10° ESE visible
20 Jan 7.2 07:20:46 10° N 07:23:57 32° WNW 07:27:10 10° SW visible
21 Jan 6.4 06:55:00 10° N 06:58:32 74° WNW 07:02:07 10° SSW visible
21 Jan 9.9 19:04:19 10° WSW 19:05:58 13° W 19:07:39 10° WNW visible
22 Jan 7.6 06:29:36 10° NNE 06:33:02 46° E 06:36:31 10° S visible
22 Jan 8.9 18:37:21 10° SSW 18:40:20 27° W 18:43:19 10° NW visible
23 Jan 9.2 06:04:40 10° NE 06:07:28 21° E 06:10:18 10° SSE visible
23 Jan 7.9 07:38:04 10° NNW 07:40:44 20° WNW 07:43:25 10° WSW visible
24 Jan 10.2 05:41:17 10° E 05:41:49 10° E 05:42:21 10° E visible
24 Jan 6.9 07:11:59 10° N 07:15:22 42° WNW 07:18:48 10° SW visible
25 Jan 6.6 06:46:20 10° NNE 06:49:56 84° ESE 06:53:33 10° S visible
25 Jan 9.7 18:55:01 10° SW 18:57:16 17° W 18:59:33 10° NW visible
26 Jan 8.2 06:21:04 10° NNE 06:24:24 36° E 06:27:47 10° SSE visible
27 Jan 9.6 05:56:20 10° NE 05:58:48 17° E 06:01:16 10° SE visible
27 Jan 7.6 07:29:09 10° NNW 07:32:10 25° WNW 07:35:12 10° SW visible
28 Jan 6.6 07:03:14 10° N 07:06:47 55° WNW 07:10:20 10° SSW visible
29 Jan 7.0 06:37:42 10° NNE 06:41:18 63° E 06:44:55 10° S visible
29 Jan 9.5 18:45:53 10° SSW 18:48:33 21° W 18:51:16 10° NW visible
